User: anonymous   Login
Location: Maddington
(51.2000°N, 1.9167°W)
Time: 08:10:56
(UTC+00:00)
Language:

Exosat Rocket - Orbit

View from above orbital plane
View from above orbital plane
View from above satellite
View from above satellite

Ground track
Ground track

The orbit data is extracted from the following two-line orbital elements,

1 14096U 83051B   20329.92423575 +.00000541 +00000-0 +94075-3 0  9998
2 14096 072.2971 193.8426 1095228 344.4502 012.5209 12.09730073655650
Epoch (UTC): 24 November 2020 22:10:53
Eccentricity: 0.1095228
inclination: 72.2971°
perigee height: 759 km
apogee height: 2515 km
right ascension of ascending node: 193.8426°
argument of perigee: 344.4502°
revolutions per day: 12.09730073
mean anomaly at epoch: 12.5209°
orbit number at epoch: 65565

The dashed part of the orbit path shows where the satellite is in the earth's shadow,  

DLR